| time (UTC) | temp C | wind direction | speed KPH | gust KPH | rain 1hr cm | rain 24hr cm | rain mn cm | humidity % | barometer mb |
| 20260504100107 | 5 | 0 | 0.0 | 3.2 | 0.00 | 0.00 | 0.00 | 93 | 1007.2 |
| 20260504090112 | 3 | 0 | 0.0 | 0.0 | 0.00 | 0.00 | 0.00 | 87 | 1007.6 |
| 20260504081555 | 5 | 356 | 1.6 | 3.2 | 0.00 | 0.00 | 0.00 | 86 | 1007.9 |
| 20260504044602 | 11 | 30 | 1.6 | 3.2 | 0.00 | 0.00 | 0.00 | 66 | 1009.9 |
| 20260504043058 | 13 | 0 | 0.0 | 3.2 | 0.00 | 0.00 | 0.00 | 62 | 1009.6 |
| 20260504041557 | 13 | 0 | 0.0 | 1.6 | 0.00 | 0.00 | 0.00 | 59 | 1009.9 |
| 20260504040114 | 14 | 0 | 0.0 | 4.8 | 0.00 | 0.00 | 0.00 | 58 | 1010.1 |
| 20260504034622 | 15 | 24 | 6.4 | 14.5 | 0.00 | 0.00 | 0.00 | 57 | 1010.8 |
| 20260504033058 | 13 | 339 | 8.0 | 17.7 | 0.00 | 0.00 | 0.00 | 65 | 1011.5 |
| 20260504031552 | 12 | 286 | 3.2 | 4.8 | 0.00 | 0.00 | 0.00 | 67 | 1011.2 |
| 20260504030119 | 12 | 0 | 0.0 | 6.4 | 0.00 | 0.00 | 0.00 | 62 | 1010.8 |
| 20260504024558 | 12 | 358 | 1.6 | 6.4 | 0.00 | 0.00 | 0.00 | 61 | 1010.7 |
| 20260504023053 | 13 | 167 | 1.6 | 4.8 | 0.00 | 0.00 | 0.00 | 65 | 1010.6 |
| 20260504021554 | 13 | 13 | 3.2 | 4.8 | 0.00 | 0.00 | 0.00 | 57 | 1010.5 |
| 20260504020052 | 15 | 0 | 0.0 | 1.6 | 0.00 | 0.00 | 0.00 | 53 | 1010.8 |
| 20260504014601 | 16 | 0 | 0.0 | 3.2 | 0.00 | 0.00 | 0.00 | 49 | 1010.8 |
| 20260504013054 | 18 | 0 | 0.0 | 3.2 | 0.00 | 0.00 | 0.00 | 42 | 1010.9 |
| 20260504011553 | 20 | 41 | 1.6 | 3.2 | 0.00 | 0.00 | 0.00 | 38 | 1010.8 |
| 20260504010058 | 22 | 0 | 0.0 | 1.6 | 0.00 | 0.00 | 0.00 | 32 | 1010.9 |
| 20260504004553 | 22 | 0 | 0.0 | 3.2 | 0.00 | 0.00 | 0.00 | 32 | 1011.0 |
| 20260504003055 | 22 | 290 | 1.6 | 3.2 | 0.00 | 0.00 | 0.00 | 33 | 1011.3 |
| 20260504001604 | 21 | 0 | 1.6 | 4.8 | 0.00 | 0.00 | 0.00 | 34 | 1011.6 |
| 20260504000056 | 21 | 281 | 4.8 | 12.9 | 0.00 | 0.00 | 0.00 | 34 | 1012.1 |
| 20260503234554 | 21 | 301 | 4.8 | 12.9 | 0.00 | 0.00 | 0.00 | 34 | 1012.5 |
| 20260503233053 | 21 | 41 | 1.6 | 9.7 | 0.00 | 0.00 | 0.00 | 33 | 1012.8 |
| 20260503231553 | 21 | 293 | 4.8 | 9.7 | 0.00 | 0.00 | 0.00 | 35 | 1012.9 |
| 20260503230050 | 21 | 319 | 6.4 | 14.5 | 0.00 | 0.00 | 0.00 | 35 | 1013.1 |
| 20260503224551 | 21 | 316 | 8.0 | 17.7 | 0.00 | 0.00 | 0.00 | 35 | 1013.1 |
| 20260503223052 | 22 | 264 | 14.5 | 24.1 | 0.00 | 0.00 | 0.00 | 32 | 1013.3 |
| 20260503221553 | 23 | 240 | 6.4 | 12.9 | 0.00 | 0.00 | 0.00 | 32 | 1013.3 |
| 20260503220056 | 22 | 336 | 6.4 | 16.1 | 0.00 | 0.00 | 0.00 | 34 | 1013.6 |
| 20260503214601 | 22 | 259 | 14.5 | 24.1 | 0.00 | 0.00 | 0.00 | 33 | 1013.8 |
| 20260503213052 | 22 | 280 | 9.7 | 19.3 | 0.00 | 0.00 | 0.00 | 33 | 1013.8 |
| 20260503211556 | 21 | 237 | 11.3 | 17.7 | 0.00 | 0.00 | 0.00 | 35 | 1014.1 |
| 20260503210055 | 21 | 348 | 9.7 | 19.3 | 0.00 | 0.00 | 0.00 | 37 | 1014.3 |
| 20260503204557 | 21 | 242 | 8.0 | 27.4 | 0.00 | 0.00 | 0.00 | 35 | 1014.6 |
| 20260503203053 | 21 | 318 | 9.7 | 17.7 | 0.00 | 0.00 | 0.00 | 37 | 1014.9 |
| 20260503201551 | 21 | 331 | 9.7 | 25.7 | 0.00 | 0.00 | 0.00 | 37 | 1015.2 |
| 20260503200053 | 21 | 288 | 11.3 | 29.0 | 0.00 | 0.00 | 0.00 | 38 | 1015.4 |
| 20260503194553 | 21 | 248 | 8.0 | 27.4 | 0.00 | 0.00 | 0.00 | 37 | 1015.5 |
| 20260503193108 | 20 | 351 | 14.5 | 29.0 | 0.00 | 0.00 | 0.00 | 35 | 1015.7 |
| 20260503191554 | 21 | 299 | 17.7 | 29.0 | 0.00 | 0.00 | 0.00 | 34 | 1015.9 |
| 20260503190105 | 21 | 328 | 12.9 | 24.1 | 0.00 | 0.00 | 0.00 | 34 | 1015.9 |
| 20260503184553 | 21 | 254 | 8.0 | 25.7 | 0.00 | 0.00 | 0.00 | 33 | 1016.1 |
| 20260503183105 | 21 | 310 | 8.0 | 19.3 | 0.00 | 0.00 | 0.00 | 37 | 1016.2 |
| 20260503181551 | 20 | 271 | 14.5 | 24.1 | 0.00 | 0.00 | 0.00 | 34 | 1016.2 |
| 20260503180058 | 20 | 294 | 4.8 | 19.3 | 0.00 | 0.00 | 0.00 | 36 | 1016.5 |
| 20260503174554 | 20 | 344 | 14.5 | 20.9 | 0.00 | 0.00 | 0.00 | 35 | 1016.5 |
| 20260503173111 | 20 | 289 | 6.4 | 25.7 | 0.00 | 0.00 | 0.00 | 37 | 1016.7 |
| 20260503171553 | 19 | 30 | 6.4 | 22.5 | 0.00 | 0.00 | 0.00 | 37 | 1017.1 |